Regional Weather Roundup
Issued by NWS

Home | Current Version | Previous Version | Text Only | Print | Product List | Glossary On
Versions: 1 2 3 4 5 6 7 8 9 10 11 12 13 14 15 16 17 18 19 20 21 22 23 24 25 26
000
ASUS46 KSEW 250810
RWRWA

WASHINGTON REGIONAL WEATHER ROUNDUP
NATIONAL WEATHER SERVICE SEATTLE WA
100 AM PDT WED MAY 25 2016

NOTE:"FAIR" INDICATES FEW OR NO CLOUDS BELOW 12,000 FEET WITH NO
SIGNIFICANT WEATHER AND/OR OBSTRUCTIONS TO VISIBILITY.

WAZ505-507>509-250900-
SEATTLE, TACOMA, EVERETT, AND VICINITY

CITY           SKY/WX    TMP DP  RH WIND       PRES   REMARKS
EVERETT        CLOUDY    53  47  79 N3        30.05S
BOEING FIELD   CLOUDY    59  51  75 CALM      30.04R
RENTON         CLOUDY    59  51  75 NW9       30.03R
SEATAC AIRPORT CLOUDY    55  51  86 W5        30.05R
JBLM-MCCHORD   MOCLDY    55  51  85 W3        30.05R
PUYALLUP       CLOUDY    54  52  94 CALM      30.05S
BREMERTON      CLOUDY    52  52 100 CALM      30.07S
JBLM-FT LEWIS  CLOUDY    54  51  88 W3        30.05R
TACOMA NARROWS CLOUDY    55  48  77 SW3       30.05S
$$

WAZ001-503-506-510-514-515-250900-
NORTH INTERIOR

CITY           SKY/WX    TMP DP  RH WIND       PRES   REMARKS
BELLINGHAM     MOCLDY    56  51  84 S6        30.02S
FRIDAY HARBOR  CLEAR     46  45  96 CALM      30.03S
EASTSOUND      PTCLDY    54  48  82 S7        30.00S
PORT ANGELES   MOCLDY    51  47  86 W10       30.05S
EDIZ HOOK      FAIR      52  48  86 W14       30.05S
PORT TOWNSEND  MOCLDY    48  48 100 CALM      30.05S
NAS WHIDBEY    PTCLDY    53  49  86 SW10      30.08S
ARLINGTON      CLOUDY    54  43  66 N5        30.06S
BURLINGTON     CLOUDY    52  48  87 CALM      30.05R
$$

WAZ020-022-039-040-504-511-512-250900-
SOUTHWEST INTERIOR

CITY           SKY/WX    TMP DP  RH WIND       PRES   REMARKS
SHELTON        CLOUDY    52  48  86 SW9       30.03R
OLYMPIA        CLEAR     47  44  90 CALM      30.05R
CHEHALIS       CLOUDY    54  50  87 SW3       30.07R
KELSO          CLOUDY    55  46  71 CALM      30.10R
VANCOUVER      CLOUDY    56  47  71 NW5       30.05R
SCAPPOOSE, OR  PTCLDY    53  45  74 VRB3      30.05R
PORTLAND, OR   MOCLDY    56  47  71 NW9       30.05S
$$

WAZ021-516-517-250900-
WASHINGTON COAST

CITY           SKY/WX    TMP DP  RH WIND       PRES   REMARKS
FORKS          CLOUDY    49  47  93 CALM      30.07S
HOQUIAM        CLEAR     53  51  93 W5        30.07S FOG
ASTORIA, OR    CLOUDY    55  51  86 CALM      30.08R
$$

WAZ019-023-024-040-518-519-250900-
CASCADE MOUNTAINS AND COLUMBIA GORGE

CITY           SKY/WX    TMP DP  RH WIND       PRES   REMARKS
STAMPEDE PASS  CLOUDY    44  41  89 VRB6      30.03S
TROUTDALE, OR  MOCLDY    56  46  69 W3        30.05R
THE DALLES, OR CLEAR     60  47  61 NW8       29.96R
$$

WAZ026-027-041>044-520-521-250900-
EAST SLOPES

CITY           SKY/WX    TMP DP  RH WIND       PRES   REMARKS
OMAK           PTCLDY    56  46  69 SW3       29.90R
WENATCHEE      CLEAR     58  42  55 NW10      29.93S
ELLENSBURG     CLEAR     54  43  66 NW15      29.95R
YAKIMA         CLEAR     57  41  55 CALM      29.95R
$$

WAZ028-034-035-250900-
COLUMBIA BASIN

CITY           SKY/WX    TMP DP  RH WIND       PRES   REMARKS
EPHRATA        CLEAR     60  43  53 NW10      29.90S
MOSES LAKE     CLEAR     52  45  77 N5        29.91R
PASCO          CLEAR     55  46  71 NW3       29.92R
HERMISTON, OR  CLEAR     58  45  62 SW9       29.93R
$$

WAZ036>038-250900-
NORTHEAST WASHINGTON

CITY           SKY/WX    TMP DP  RH WIND       PRES   REMARKS
SPOKANE GEIGER PTCLDY    52  45  77 S7        29.93S
SPOKANE FELTS  CLEAR     50  46  86 NE3       29.94S
FAIRCHILD AFB  CLEAR     51  47  84 SE3       29.93S
COEURDALENE,ID CLEAR     48  46  93 SE3       29.92S
DEER PARK      MOCLDY    42  40  92 MISG      29.94S FOG
$$

WAZ029>033-250900-
SOUTHEAST WASHINGTON

CITY           SKY/WX    TMP DP  RH WIND       PRES   REMARKS
PULLMAN        CLEAR     45  42  89 CALM      29.96S
LEWISTON, ID   CLEAR     51  45  79 S5        29.94R
WALLA WALLA    CLEAR     55  45  68 S10       29.94R
PENDLETON, OR  CLEAR     55  42  61 S5        29.95R
$$




USA.gov is the U.S. government's official web portal to all federal, state and local government web resources and services.